Starlink 5019

operational
NORAD ID: 55407 Int'l Des: 2023-014 Owner: SPXS Country: US Constellation: starlink
LEOCIRCULAR

Starlink 5019について

説明を読み込み中...

リアルタイム位置

3D地球を読み込み中...

次回通過

高度履歴

Altitude vs Time

uPlot chart will show altitude changes over time

軌道要素

1 55407U 23014S 25347.57216638 .00000752 00000-0 70855-4 0 9993
2 55407 69.9995 281.6745 0002771 266.3707 93.7135 14.98323682159156
Epoch: Dec 13, 2025 • Age: 22 hours

現在のステータス

高度 577.8 km
速度 7.57 km/s
衛星直下点 -17.11°S, 8.27°E
打ち上げ日 Jan 31, 2023
運用期間 2.8 years
タイプ internet

技術仕様

分類 Payload
質量 305.00 kg
乾燥質量 290.00 kg
総質量 305.00 kg
長さ 0.20 m
直径 2.80 m
スパン 9.00 m
形状 Box + pan
製造者 SPXS
バスタイプ Starlink
フェーズステータス In Orbit
所有者/国 SPXS/US

大規模コンステレーション

Loading constellations...